This is the latest recevied weather packets stored in our database for station/object N5ZP. If no packets are shown the sender has not sent any weather packets the latest 10 day(s).
| Time | Temp. | Humidity | Pressure | Rain* | Wind** | Luminosity | Snow |
|---|---|---|---|---|---|---|---|
| 1777827814 | 27.22° C | 44% | 1018.1 hPa | 0 mm | - | 736 W/m² | - |
| 1777827511 | 27.22° C | 44% | 1018.1 hPa | 0 mm | - | 736 W/m² | - |
| 1777827209 | 27.22° C | 44% | 1018 hPa | 0 mm | - | 731 W/m² | - |
| 1777826905 | 27.22° C | 45% | 1018.3 hPa | 0 mm | - | 723 W/m² | - |
| 1777826603 | 26.67° C | 43% | 1018.1 hPa | 0 mm | - | 715 W/m² | - |
| 1777826298 | 26.67° C | 43% | 1018.1 hPa | 0 mm | - | 709 W/m² | - |
| 1777825996 | 27.22° C | 44% | 1018.2 hPa | 0 mm | - | 697 W/m² | - |
| 1777825693 | 27.22° C | 44% | 1018.3 hPa | 0 mm | - | 685 W/m² | - |
| 1777825391 | 27.22° C | 45% | 1018.3 hPa | 0 mm | - | 680 W/m² | - |
| 1777825088 | 26.67° C | 43% | 1018.4 hPa | 0 mm | - | 670 W/m² | - |
| 1777824783 | 26.67° C | 43% | 1018.4 hPa | 0 mm | - | 656 W/m² | - |
| 1777824481 | 26.67° C | 43% | 1018.4 hPa | 0 mm | - | 650 W/m² | - |
| 1777824176 | 26.67° C | 45% | 1018.5 hPa | 0 mm | - | 638 W/m² | - |
| 1777823872 | 26.11° C | 46% | 1018.5 hPa | 0 mm | - | 626 W/m² | - |
| 1777823570 | 25.56° C | 44% | 1018.5 hPa | 0 mm | - | 615 W/m² | - |
| 1777823267 | 25.56° C | 44% | 1018.4 hPa | 0 mm | - | 603 W/m² | - |
| 1777822965 | 25.56° C | 46% | 1018.6 hPa | 0 mm | - | 590 W/m² | - |
| 1777822663 | 25.56° C | 45% | 1018.4 hPa | 0 mm | - | 576 W/m² | - |
| 1777822360 | 25° C | 46% | 1018.5 hPa | 0 mm | - | 563 W/m² | - |
| 1777822058 | 25° C | 46% | 1018.7 hPa | 0 mm | - | 553 W/m² | - |
| 1777821756 | 25° C | 45% | 1018.6 hPa | 0 mm | - | 539 W/m² | - |
| 1777821452 | 25° C | 47% | 1018.4 hPa | 0 mm | - | 521 W/m² | - |
| 1777821150 | 25° C | 47% | 1018.5 hPa | 0 mm | - | 509 W/m² | - |
| 1777820847 | 25° C | 46% | 1018.4 hPa | 0 mm | - | 495 W/m² | - |
| 1777820543 | 24.44° C | 48% | 1018.3 hPa | 0 mm | - | 480 W/m² | - |
* Rain latest hour (hover to see other rain measurements)
** Current wind speed in m/s (hover to see current wind gust speed)